Boonville, MO

9:55 AM CDT on March 29, 2017 (GMT -0500)
Viertel Memorial

Weather History for KVER - February, 2014

Change the Weather History Date:

Sunday, February 23, 2014

  Actual Average Record
Temperature  
Mean Temperature 30 °F -  
Max Temperature 36 °F 45 °F 71 °F (1982)
Min Temperature 25 °F 26 °F 6 °F (1960)
Degree Days  
Heating Degree Days 34    
Moisture  
Dew Point 14 °F    
Average Humidity 53    
Maximum Humidity 70    
Minimum Humidity 35    
Precipitation  
Precipitation 0.00 in - - ()
Sea Level Pressure  
Sea Level Pressure 30.25 in    
Wind  
Wind Speed 9 mph (NNE)    
Max Wind Speed 14 mph    
Max Gust Speed 16 mph    
Visibility 10 miles    
Events      
Averages and records for this station are not official NWS values.
T = Trace of Precipitation, MM = Missing Value Source: NWS Daily Summary

Daily Weather History Graph

Daily Weather History Graph

Search for Another Location

Airport or City:

Trip Planner

Search our weather history database for the weather conditions in past years. The results will help you decide how hot, cold, wet, or windy it might be!

Date:

Astronomy

Feb. 23, 2014 Rise Set
Actual Time 6:51 AM CST 5:57 PM CST
Civil Twilight 6:24 AM CST 6:24 PM CST
Nautical Twilight 5:53 AM CST 6:55 PM CST
Astronomical Twilight 5:22 AM CST 7:25 PM CST
Moon 1:48 AM CST (2/23) 12:01 PM CST (2/23)
Length of Visible Light 11h 59m
Length of Day
11h 05m
Last Quarter, 38% of the Moon is Illuminated
Feb 23
Last Quarter
Mar 1
New
Mar 8
First Quarter
Mar 16
Full
Mar 23
Last Quarter

Hourly Weather History & Observations

Time (CST) Temp. Windchill Dew Point Humidity Pressure Visibility Wind Dir Wind Speed Gust Speed Precip Events Conditions
12:15 AM 30.7 °F 21.4 °F 20.1 °F 65% 30.07 in 10.0 mi NNE 11.5 mph - N/A   Clear
12:35 AM 30.6 °F 21.2 °F 17.8 °F 59% 30.08 in 10.0 mi NNE 11.5 mph - N/A   Clear
12:55 AM 30.2 °F 21.3 °F 15.8 °F 55% 30.08 in 10.0 mi NNE 10.4 mph - N/A   Clear
1:15 AM 30.0 °F 21.1 °F 14.9 °F 53% 30.09 in 10.0 mi North 10.4 mph - N/A   Clear
1:35 AM 29.5 °F 18.8 °F 16.2 °F 58% 30.11 in 10.0 mi North 13.8 mph - N/A   Clear
1:55 AM 29.1 °F 20.0 °F 18.3 °F 64% 30.13 in 10.0 mi North 10.4 mph - N/A   Clear
2:15 AM 28.4 °F 18.0 °F 18.5 °F 66% 30.13 in 10.0 mi North 12.7 mph - N/A   Clear
2:35 AM 28.2 °F 19.5 °F 17.4 °F 64% 30.15 in 10.0 mi North 9.2 mph - N/A   Clear
2:55 AM 27.9 °F 17.8 °F 15.8 °F 61% 30.14 in 10.0 mi NNE 11.5 mph 16.1 mph N/A   Clear
3:15 AM 27.3 °F 18.4 °F 14.9 °F 60% 30.12 in 10.0 mi NNE 9.2 mph - N/A   Clear
3:35 AM 27.0 °F 17.3 °F 14.7 °F 60% 30.16 in 10.0 mi North 10.4 mph - N/A   Clear
3:55 AM 27.0 °F 18.0 °F 15.3 °F 61% 30.19 in 10.0 mi North 9.2 mph - N/A   Clear
4:15 AM 27.0 °F - 16.2 °F 64% 30.18 in 10.0 mi Calm Calm - N/A   Scattered Clouds
4:35 AM 27.0 °F 16.7 °F 16.3 °F 64% 30.18 in 10.0 mi NNE 11.5 mph - N/A   Scattered Clouds
4:55 AM 26.4 °F 18.0 °F 16.7 °F 67% 30.18 in 10.0 mi NNE 8.1 mph 16.1 mph N/A   Scattered Clouds
5:15 AM 26.2 °F 17.1 °F 16.0 °F 65% 30.19 in 10.0 mi NE 9.2 mph - N/A   Scattered Clouds
5:35 AM 26.1 °F 16.2 °F 14.2 °F 61% 30.21 in 10.0 mi NNE 10.4 mph - N/A   Scattered Clouds
5:55 AM 25.7 °F 16.4 °F 12.2 °F 57% 30.23 in 10.0 mi North 9.2 mph 16.1 mph N/A   Scattered Clouds
6:15 AM 25.7 °F 14.6 °F 11.8 °F 56% 30.22 in 10.0 mi NNE 12.7 mph - N/A   Mostly Cloudy
6:35 AM 25.5 °F 16.2 °F 12.0 °F 57% 30.22 in 10.0 mi NNE 9.2 mph - N/A   Mostly Cloudy
6:55 AM 25.5 °F 16.2 °F 11.7 °F 56% 30.22 in 10.0 mi NE 9.2 mph - N/A   Overcast
7:15 AM 25.5 °F 17.8 °F 11.7 °F 56% 30.20 in 10.0 mi NE 6.9 mph - N/A   Overcast
7:35 AM 25.5 °F 18.7 °F 12.0 °F 57% 30.21 in 10.0 mi NE 5.8 mph - N/A   Overcast
7:55 AM 25.9 °F 17.4 °F 12.4 °F 57% 30.22 in 10.0 mi NE 8.1 mph - N/A   Overcast
8:15 AM 26.2 °F 17.1 °F 12.7 °F 57% 30.23 in 10.0 mi NNE 9.2 mph - N/A   Overcast
8:35 AM 27.0 °F 18.7 °F 13.5 °F 57% 30.24 in 10.0 mi NNE 8.1 mph - N/A   Scattered Clouds
8:55 AM 28.0 °F 21.7 °F 14.0 °F 56% 30.25 in 10.0 mi NE 5.8 mph - N/A   Clear
9:15 AM 28.2 °F 18.9 °F 14.2 °F 56% 30.26 in 10.0 mi NNE 10.4 mph - N/A   Scattered Clouds
9:35 AM 28.9 °F 21.1 °F 14.2 °F 54% 30.26 in 10.0 mi NNE 8.1 mph - N/A   Scattered Clouds
9:55 AM 30.0 °F 21.7 °F 14.0 °F 51% 30.27 in 10.0 mi North 9.2 mph - N/A   Mostly Cloudy
10:15 AM 30.0 °F 22.4 °F 13.5 °F 50% 30.27 in 10.0 mi North 8.1 mph - N/A   Overcast
10:35 AM 31.3 °F 22.7 °F 14.7 °F 50% 30.28 in 10.0 mi NNE 10.4 mph - N/A   Overcast
10:55 AM 31.5 °F 24.9 °F 15.8 °F 52% 30.28 in 10.0 mi North 6.9 mph - N/A   Mostly Cloudy
11:15 AM 31.6 °F 23.1 °F 14.2 °F 49% 30.28 in 10.0 mi North 10.4 mph - N/A   Overcast
11:35 AM 32.9 °F 25.9 °F 12.6 °F 43% 30.28 in 10.0 mi NNE 8.1 mph - N/A   Overcast
11:55 AM 34.2 °F 26.2 °F 12.0 °F 40% 30.28 in 10.0 mi NNE 10.4 mph - N/A   Overcast
12:15 PM 34.5 °F 27.9 °F 12.6 °F 40% 30.28 in 10.0 mi North 8.1 mph - N/A   Overcast
12:35 PM 35.1 °F 27.4 °F 11.8 °F 38% 30.28 in 10.0 mi NNE 10.4 mph - N/A   Overcast
12:55 PM 35.2 °F 27.6 °F 11.7 °F 38% 30.28 in 10.0 mi NNE 10.4 mph - N/A   Overcast
1:15 PM 35.4 °F 28.4 °F 11.5 °F 37% 30.27 in 10.0 mi North 9.2 mph - N/A   Overcast
1:35 PM 35.2 °F 27.6 °F 12.7 °F 40% 30.27 in 10.0 mi North 10.4 mph - N/A   Overcast
1:55 PM 35.4 °F 29.0 °F 11.5 °F 37% 30.26 in 10.0 mi NNE 8.1 mph - N/A   Overcast
2:15 PM 35.4 °F 29.0 °F 10.8 °F 36% 30.27 in 10.0 mi NNE 8.1 mph - N/A   Overcast
2:35 PM 35.1 °F 27.4 °F 10.4 °F 36% 30.28 in 10.0 mi NNE 10.4 mph - N/A   Overcast
2:55 PM 35.4 °F 28.4 °F 10.2 °F 35% 30.27 in 10.0 mi North 9.2 mph - N/A   Overcast
3:15 PM 36.0 °F 29.0 °F 10.9 °F 36% 30.27 in 10.0 mi North 9.2 mph - N/A   Overcast
3:35 PM 36.5 °F 29.7 °F 10.8 °F 35% 30.27 in 10.0 mi NNE 9.2 mph - N/A   Overcast
3:55 PM 35.8 °F 30.1 °F 10.9 °F 36% 30.27 in 10.0 mi NW 6.9 mph - N/A   Overcast
4:15 PM 35.6 °F 29.2 °F 11.7 °F 37% 30.28 in 10.0 mi NNW 8.1 mph - N/A   Overcast
4:35 PM 35.1 °F 27.9 °F 11.8 °F 38% 30.28 in 10.0 mi North 9.2 mph - N/A   Overcast
4:55 PM 34.5 °F 27.3 °F 12.7 °F 41% 30.29 in 10.0 mi North 9.2 mph - N/A   Overcast
5:15 PM 33.6 °F 27.5 °F 12.9 °F 43% 30.29 in 10.0 mi North 6.9 mph - N/A   Overcast
5:35 PM 33.1 °F 26.1 °F 14.5 °F 47% 30.30 in 10.0 mi North 8.1 mph - N/A   Overcast
5:55 PM 32.9 °F 28.5 °F 14.9 °F 48% 30.30 in 10.0 mi NNW 4.6 mph - N/A   Overcast
6:15 PM 32.2 °F 24.4 °F 14.4 °F 48% 30.30 in 10.0 mi North 9.2 mph - N/A   Overcast
6:35 PM 31.8 °F 25.4 °F 14.5 °F 49% 30.31 in 10.0 mi North 6.9 mph - N/A   Overcast
6:55 PM 31.3 °F 25.6 °F 14.5 °F 50% 30.32 in 10.0 mi North 5.8 mph - N/A   Scattered Clouds
7:15 PM 29.7 °F 23.7 °F 14.5 °F 53% 30.32 in 10.0 mi North 5.8 mph - N/A   Scattered Clouds
7:35 PM 29.7 °F 24.7 °F 15.1 °F 55% 30.33 in 10.0 mi North 4.6 mph - N/A   Overcast
7:55 PM 30.2 °F 25.4 °F 15.6 °F 55% 30.33 in 10.0 mi North 4.6 mph - N/A   Mostly Cloudy
8:15 PM 29.8 °F - 15.3 °F 55% 30.33 in 10.0 mi Calm Calm - N/A   Scattered Clouds
8:35 PM 29.1 °F - 15.6 °F 57% 30.33 in 10.0 mi Calm Calm - N/A   Scattered Clouds
8:55 PM 27.9 °F 24.0 °F 16.2 °F 62% 30.33 in 10.0 mi North 3.5 mph - N/A   Mostly Cloudy
9:15 PM 28.2 °F 24.4 °F 15.8 °F 60% 30.33 in 10.0 mi North 3.5 mph - N/A   Mostly Cloudy
9:35 PM 27.9 °F - 15.8 °F 61% 30.34 in 10.0 mi Calm Calm - N/A   Scattered Clouds
9:55 PM 27.9 °F - 16.0 °F 61% 30.35 in 10.0 mi Calm Calm - N/A   Scattered Clouds
10:15 PM 27.1 °F - 16.5 °F 64% 30.34 in 10.0 mi Calm Calm - N/A   Scattered Clouds
10:35 PM 27.1 °F - 16.3 °F 64% 30.35 in 10.0 mi Calm Calm - N/A   Scattered Clouds
10:55 PM 26.4 °F - 16.2 °F 65% 30.34 in 10.0 mi Calm Calm - N/A   Clear
11:15 PM 26.8 °F - 15.6 °F 63% 30.34 in 10.0 mi Calm Calm - N/A   Clear
11:35 PM 26.1 °F - 15.8 °F 65% 30.35 in 10.0 mi Calm Calm - N/A   Clear
11:55 PM 25.0 °F 20.7 °F 16.3 °F 70% 30.35 in 10.0 mi North 3.5 mph - N/A   Clear